Chicopee, MA

3:13 AM EDT on April 25, 2017 (GMT -0400)
Westover Air Reserve Base / Metropolitan Airport

Weather History for KCEF - April, 2013

Change the Weather History Date:

Thursday, April 11, 2013

  Actual Average Record
Temperature  
Mean Temperature 46 °F -  
Max Temperature 54 °F 56 °F 88 °F (2017)
Min Temperature 37 °F 34 °F 21 °F (2007)
Degree Days  
Heating Degree Days 19    
Moisture  
Dew Point 43 °F    
Average Humidity 85    
Maximum Humidity 100    
Minimum Humidity 41    
Precipitation  
Precipitation 0.04 in - - ()
Sea Level Pressure  
Sea Level Pressure 29.95 in    
Wind  
Wind Speed 8 mph (North)    
Max Wind Speed 16 mph    
Max Gust Speed -    
Visibility 9 miles    
Events Rain    
Averages and records for this station are not official NWS values.
T = Trace of Precipitation, MM = Missing Value Source: NWS Daily Summary

Daily Weather History Graph

Daily Weather History Graph

Search for Another Location

Airport or City:

Trip Planner

Search our weather history database for the weather conditions in past years. The results will help you decide how hot, cold, wet, or windy it might be!

Date:

Astronomy

Apr. 11, 2013 Rise Set
Actual Time 6:15 AM EDT 7:27 PM EDT
Civil Twilight 5:46 AM EDT 7:56 PM EDT
Nautical Twilight 5:12 AM EDT 8:30 PM EDT
Astronomical Twilight 4:36 AM EDT 9:07 PM EDT
Moon 6:43 AM EDT (4/11) 9:01 PM EDT (4/11)
Length of Visible Light 14h 09m
Length of Day
13h 11m
New Moon, 2% of the Moon is Illuminated
Apr 11
New Moon
Apr 18
First Quarter
Apr 25
Full
May 2
Last Quarter
May 9
New

Hourly Weather History & Observations

Time (EDT) Temp. Windchill Dew Point Humidity Pressure Visibility Wind Dir Wind Speed Gust Speed Precip Events Conditions
12:06 AM 51.8 °F - 51.8 °F 100% 29.85 in 10.0 mi South 4.6 mph - N/A   Overcast
12:31 AM 51.8 °F - 50.0 °F 94% 29.86 in 10.0 mi Calm Calm - N/A   Overcast
12:35 AM 51.8 °F - 51.8 °F 100% 29.87 in 9.0 mi Calm Calm - N/A   Overcast
12:37 AM 51.8 °F - 51.8 °F 100% 29.87 in 8.0 mi Calm Calm - N/A   Light Drizzle
12:39 AM 51.8 °F - 51.8 °F 100% 29.87 in 6.0 mi Calm Calm - N/A   Light Drizzle
12:46 AM 51.8 °F - 50.0 °F 94% 29.87 in 4.0 mi SSW 4.6 mph - N/A   Light Drizzle
12:53 AM 51.8 °F - 50.0 °F 94% 29.87 in 4.0 mi SSW 4.6 mph - N/A   Light Drizzle
12:55 AM 50.9 °F - 50.4 °F 98% 29.87 in 4.0 mi SSW 5.8 mph - 0.01 in   Light Drizzle
1:00 AM 50.0 °F - 50.0 °F 100% 29.87 in 4.0 mi SW 3.5 mph - N/A   Light Drizzle
1:07 AM 50.0 °F - 50.0 °F 100% 29.87 in 3.0 mi West 6.9 mph - N/A Rain Light Rain
1:27 AM 50.0 °F - 50.0 °F 100% 29.86 in 10.0 mi NNW 10.4 mph - N/A   Light Drizzle
1:36 AM 50.0 °F - 50.0 °F 100% 29.86 in 10.0 mi NNW 11.5 mph - N/A   Overcast
1:37 AM 50.0 °F - 50.0 °F 100% 29.86 in 10.0 mi NNW 10.4 mph - N/A   Light Drizzle
1:39 AM 50.0 °F - 48.2 °F 94% 29.85 in 10.0 mi NNW 10.4 mph - N/A   Overcast
1:40 AM 50.0 °F - 48.2 °F 94% 29.85 in 10.0 mi NNW 9.2 mph - N/A   Overcast
1:53 AM 50.0 °F - 48.2 °F 94% 29.85 in 10.0 mi NNW 6.9 mph - N/A   Overcast
1:55 AM 49.1 °F - 48.6 °F 98% 29.85 in 10.0 mi NNW 6.9 mph - 0.01 in   Overcast
2:55 AM 48.7 °F - 48.2 °F 98% 29.85 in 10.0 mi North 11.5 mph - 0.01 in   Overcast
2:56 AM 48.2 °F - 48.2 °F 100% 29.84 in 10.0 mi North 12.7 mph - N/A   Overcast
3:02 AM 48.2 °F - 48.2 °F 100% 29.85 in 10.0 mi North 11.5 mph - N/A   Overcast
3:04 AM 48.2 °F - 48.2 °F 100% 29.85 in 10.0 mi North 10.4 mph - N/A   Overcast
3:06 AM 48.2 °F - 48.2 °F 100% 29.84 in 10.0 mi North 11.5 mph - N/A   Overcast
3:26 AM 48.2 °F - 48.2 °F 100% 29.84 in 10.0 mi North 12.7 mph - N/A   Overcast
3:34 AM 48.2 °F - 48.2 °F 100% 29.85 in 10.0 mi North 11.5 mph - N/A   Overcast
3:50 AM 48.2 °F - 46.4 °F 93% 29.86 in 10.0 mi NNW 10.4 mph - N/A   Overcast
3:55 AM 47.7 °F - 47.1 °F 98% 29.86 in 10.0 mi North 12.7 mph - N/A   Overcast
4:52 AM 46.4 °F 41.9 °F 46.4 °F 100% 29.88 in 10.0 mi NNW 9.2 mph - N/A   Overcast
4:55 AM 46.9 °F - 46.4 °F 98% 29.87 in 10.0 mi NNW 10.4 mph - N/A   Overcast
5:04 AM 46.4 °F 41.5 °F 46.4 °F 100% 29.87 in 10.0 mi North 10.4 mph - N/A   Overcast
5:30 AM 46.4 °F 41.5 °F 46.4 °F 100% 29.89 in 10.0 mi North 10.4 mph - N/A   Overcast
5:37 AM 46.4 °F 41.9 °F 46.4 °F 100% 29.90 in 10.0 mi NNW 9.2 mph - N/A   Overcast
5:43 AM 46.4 °F 41.5 °F 46.4 °F 100% 29.90 in 10.0 mi North 10.4 mph - N/A   Overcast
5:55 AM 46.0 °F 41.4 °F 45.5 °F 98% 29.91 in 10.0 mi North 9.2 mph - N/A   Overcast
5:58 AM 46.4 °F 41.1 °F 46.4 °F 100% 29.91 in 10.0 mi NNW 11.5 mph - N/A   Overcast
6:55 AM 46.0 °F 40.2 °F 42.8 °F 88% 29.94 in 10.0 mi North 12.7 mph - N/A   Overcast
7:55 AM 47.3 °F - 42.8 °F 84% 29.94 in 10.0 mi NE 11.5 mph - N/A   Mostly Cloudy
8:55 AM 47.8 °F - 40.1 °F 75% 29.99 in 10.0 mi NNE 6.9 mph - N/A   Mostly Cloudy
9:55 AM 50.9 °F - 39.2 °F 64% 29.99 in 10.0 mi NE 5.8 mph - N/A   Mostly Cloudy
10:55 AM 52.5 °F - 38.8 °F 60% 30.01 in 10.0 mi NNE 4.6 mph - N/A   Overcast
11:55 AM 53.1 °F - 38.7 °F 58% 30.01 in 10.0 mi North 12.7 mph - N/A   Mostly Cloudy
12:55 PM 53.2 °F - 37.4 °F 55% 30.02 in 10.0 mi North 15.0 mph - N/A   Overcast
1:14 PM 53.6 °F - 39.2 °F 58% 30.01 in 10.0 mi North 16.1 mph - N/A   Light Drizzle
1:24 PM 53.6 °F - 39.2 °F 58% 30.01 in 10.0 mi North 15.0 mph - N/A   Overcast
1:55 PM 52.5 °F - 37.0 °F 56% 30.03 in 10.0 mi NNE 12.7 mph - 0.00 in   Overcast
2:55 PM 53.1 °F - 32.0 °F 45% 30.02 in 10.0 mi North 11.5 mph - N/A   Overcast
3:55 PM 50.5 °F - 27.3 °F 41% 30.02 in 10.0 mi NNE 11.5 mph - N/A   Overcast
4:55 PM 49.6 °F - 26.8 °F 41% 30.03 in 10.0 mi North 13.8 mph - N/A   Overcast
5:55 PM 47.8 °F - 28.0 °F 46% 30.04 in 10.0 mi NNE 12.7 mph - N/A   Overcast
6:55 PM 46.6 °F - 28.8 °F 50% 30.06 in 10.0 mi NE 13.8 mph - N/A   Overcast
7:55 PM 44.2 °F 38.8 °F 30.0 °F 57% 30.07 in 10.0 mi NNE 10.4 mph - N/A   Overcast
8:55 PM 43.2 °F 36.6 °F 27.0 °F 53% 30.10 in 10.0 mi NNE 12.7 mph - N/A   Overcast
9:25 PM 42.8 °F 35.4 °F 28.4 °F 57% 30.12 in 10.0 mi North 15.0 mph - N/A   Overcast
9:27 PM 41.0 °F 33.5 °F 30.2 °F 65% 30.12 in 10.0 mi North 13.8 mph - N/A Rain Light Rain
9:47 PM 39.2 °F 32.5 °F 35.6 °F 87% 30.12 in 10.0 mi NNE 10.4 mph - N/A Rain Light Rain
9:55 PM 39.2 °F 33.0 °F 36.5 °F 90% 30.12 in 10.0 mi NE 9.2 mph - 0.00 in Rain Light Rain
10:07 PM 39.2 °F 33.6 °F 37.4 °F 93% 30.12 in 10.0 mi NE 8.1 mph - N/A   Overcast
10:44 PM 39.2 °F 33.0 °F 37.4 °F 93% 30.13 in 10.0 mi NNE 9.2 mph - N/A   Overcast
10:55 PM 39.2 °F 33.0 °F 36.5 °F 90% 30.13 in 10.0 mi North 9.2 mph - 0.00 in Rain Light Rain
11:41 PM 39.2 °F 33.0 °F 37.4 °F 93% 30.14 in 10.0 mi North 9.2 mph - N/A   Overcast
11:55 PM 37.9 °F 31.5 °F 36.1 °F 93% 30.14 in 10.0 mi NNE 9.2 mph - 0.01 in   Overcast